Location: Newark
(48.0000°N, 67.0000°E)
Time: 11:19:12
(UTC+00:00)

N. Korean satellite - Pass Details

Date: 29 January 2020
Orbit: 456 x 505 km, 97.2° (Epoch: 19 February)

Event Time Altitude Azimuth Distance (km) Brightness Sun altitude
Rises 02:24:14 0° 359° (N) 2,548 10.0 -7.0°
Reaches altitude 10° 02:26:38 10° 343° (NNW) 1,673 8.9 -6.7°
Maximum altitude 02:29:22 21° 294° (WNW) 1,152 7.8 -6.2°
Drops below altitude 10° 02:32:07 10° 244° (WSW) 1,684 8.9 -5.8°
Sets 02:34:33 0° 228° (SW) 2,570 10.0 -5.4°
